Temp
-13 -13 -13 -13 -13 -12 -12 -12 -12 -12 -12 -12 -12 -13 -13 -13 -13 -13 -13 -13 -13 -13 -13 -13 -13 -13 -13 -13 -13 -13 -13 -13 -13 -13 -13 -13 -13 -13 -13 -13 -13 -13 -13 -13 -13 -13 -13 -13 -13 -13 -13 -13 -13 -13 -13 -13 -13 -13 -13 -13 -13 -13 -14
-13 -13 -13 -13 -13 -13 -12 -12 -12 -12 -12 -12 -12 -13 -13 -13 -13 -13 -13 -13 -13 -13 -13 -13 -13 -13 -13 -13 -13 -13 -13 -13 -13 -13 -13 -13 -13 -13 -13 -13 -13 -13 -13 -14 -14 -13 -13 -14 -13 -13 -13 -13 -13 -13 -13 -13 -13 -13 -13 -13 -13 -13 -14
-13 -13 -13 -13 -13 -13 -13 -12 -12 -12 -12 -12 -12 -12 -13 -13 -13 -13 -13 -13 -13 -13 -13 -13 -13 -13 -13 -13 -13 -13 -13 -13 -13 -13 -13 -13 -13 -13 -13 -13 -13 -13 -13 -14 -14 -14 -14 -14 -14 -13 -13 -13 -13 -13 -13 -13 -13 -13 -13 -13 -13 -13 -14
-13 -13 -13 -13 -13 -13 -13 -13 -12 -12 -12 -13 -13 -12 -13 -13 -13 -13 -13 -13 -13 -13 -13 -13 -13 -13 -13 -13 -13 -13 -13 -13 -13 -14 -14 -14 -14 -14 -13 -14 -14 -14 -14 -14 -14 -14 -14 -14 -14 -14 -13 -13 -13 -13 -13 -13 -13 -13 -14 -14 -13 -13 -14
-14 -14 -14 -14 -13 -13 -13 -13 -12 -12 -12 -12 -12 -13 -13 -13 -13 -13 -13 -13 -13 -14 -14 -13 -13 -13 -13 -13 -13 -13 -14 -14 -14 -14 -14 -14 -14 -14 -14 -14 -14 -14 -14 -14 -14 -14 -14 -14 -14 -14 -14 -14 -14 -14 -13 -13 -13 -14 -14 -14 -14 -14 -14
-14 -14 -14 -14 -14 -14 -13 -13 -13 -12 -13 -13 -12 -13 -13 -13 -13 -13 -13 -13 -13 -13 -14 -14 -13 -13 -13 -14 -14 -14 -14 -14 -14 -14 -14 -14 -14 -14 -14 -14 -14 -14 -14 -14 -14 -14 -14 -14 -14 -14 -14 -14 -14 -14 -14 -14 -14 -14 -14 -14 -14 -14 -14
-14 -14 -14 -14 -14 -14 -13 -13 -13 -13 -13 -13 -13 -13 -13 -13 -13 -13 -13 -14 -13 -13 -14 -14 -14 -14 -14 -14 -14 -14 -14 -14 -14 -14 -14 -14 -14 -14 -14 -14 -14 -14 -14 -14 -14 -14 -14 -14 -14 -14 -14 -14 -14 -14 -14 -14 -14 -14 -14 -14 -14 -14 -14
-14 -14 -14 -14 -14 -14 -14 -13 -13 -13 -13 -13 -13 -13 -13 -13 -13 -13 -13 -14 -14 -14 -14 -14 -14 -14 -14 -14 -14 -14 -14 -14 -14 -14 -14 -14 -14 -14 -14 -14 -14 -14 -14 -14 -14 -14 -14 -14 -14 -14 -14 -14 -14 -14 -14 -14 -14 -14 -14 -14 -14 -14 -14
-14 -13 -14 -14 -14 -13 -13 -13 -13 -13 -13 -13 -13 -13 -13 -13 -13 -13 -14 -14 -14 -14 -14 -14 -14 -14 -14 -14 -14 -14 -14 -14 -14 -14 -14 -14 -14 -14 -14 -14 -14 -14 -14 -14 -14 -14 -14 -14 -14 -14 -14 -14 -14 -14 -14 -14 -14 -14 -15 -14 -14 -14 -14
-14 -13 -13 -14 -14 -13 -13 -13 -13 -13 -13 -13 -13 -13 -13 -13 -13 -14 -14 -14 -14 -14 -14 -14 -14 -14 -14 -14 -14 -14 -14 -14 -14 -14 -14 -14 -14 -14 -14 -14 -14 -14 -14 -14 -14 -14 -14 -14 -14 -14 -14 -14 -14 -14 -14 -14 -15 -15 -15 -14 -14 -14 -14
-13 -13 -13 -13 -13 -13 -13 -13 -13 -13 -13 -13 -13 -13 -13 -13 -13 -14 -14 -14 -14 -14 -14 -14 -14 -14 -14 -14 -14 -14 -14 -14 -14 -14 -14 -14 -14 -14 -14 -14 -14 -14 -14 -14 -14 -14 -14 -14 -14 -14 -14 -14 -14 -14 -14 -14 -15 -15 -15 -15 -14 -14 -14
-13 -13 -13 -13 -13 -13 -13 -13 -13 -13 -13 -13 -13 -13 -14 -14 -14 -14 -14 -14 -14 -14 -14 -14 -14 -14 -14 -14 -14 -14 -14 -14 -14 -14 -14 -14 -14 -14 -14 -14 -14 -14 -14 -14 -14 -14 -14 -14 -14 -14 -14 -14 -14 -14 -14 -14 -15 -15 -15 -15 -14 -15 -15
-14 -14 -13 -13 -13 -13 -13 -13 -13 -13 -13 -13 -13 -13 -13 -14 -14 -14 -14 -14 -14 -14 -14 -14 -14 -14 -14 -14 -14 -14 -14 -14 -14 -14 -14 -14 -14 -14 -14 -14 -14 -14 -14 -14 -14 -14 -14 -14 -14 -14 -14 -14 -14 -14 -14 -14 -15 -15 -15 -15 -15 -15 -15
-14 -14 -14 -14 -13 -13 -13 -13 -13 -13 -13 -13 -13 -13 -13 -14 -14 -14 -14 -14 -14 -14 -14 -14 -14 -14 -14 -14 -14 -14 -14 -14 -15 -14 -14 -14 -14 -14 -15 -15 -15 -14 -14 -14 -14 -14 -14 -14 -14 -14 -14 -14 -14 -14 -15 -14 -15 -15 -15 -15 -15 -15 -15
-14 -14 -14 -14 -14 -14 -14 -13 -13 -13 -13 -13 -13 -14 -14 -14 -14 -14 -14 -14 -14 -14 -15 -14 -15 -15 -15 -14 -14 -14 -14 -15 -15 -15 -15 -15 -14 -14 -15 -15 -15 -15 -15 -15 -15 -14 -14 -14 -14 -14 -14 -14 -14 -15 -15 -15 -15 -15 -15 -15 -15 -14 -15
-14 -14 -14 -14 -14 -14 -14 -14 -13 -13 -13 -14 -14 -14 -14 -14 -14 -14 -14 -14 -15 -15 -15 -15 -15 -15 -15 -15 -15 -15 -15 -15 -15 -15 -15 -15 -15 -15 -15 -15 -15 -15 -15 -15 -15 -15 -15 -15 -15 -15 -15 -15 -14 -15 -15 -15 -15 -15 -15 -15 -15 -14 -15
-14 -14 -14 -14 -14 -14 -14 -14 -13 -13 -14 -14 -14 -14 -14 -14 -14 -14 -14 -14 -15 -15 -15 -15 -15 -15 -15 -15 -15 -15 -15 -15 -15 -15 -15 -15 -15 -15 -15 -15 -15 -15 -15 -15 -15 -15 -15 -15 -15 -15 -15 -15 -15 -15 -15 -15 -15 -15 -15 -15 -15 -15 -15
-14 -14 -14 -14 -14 -14 -14 -13 -13 -13 -13 -13 -13 -14 -14 -14 -14 -14 -14 -14 -15 -15 -15 -15 -15 -15 -15 -15 -15 -15 -15 -15 -15 -15 -15 -15 -15 -15 -15 -15 -15 -15 -15 -15 -15 -15 -15 -15 -15 -15 -15 -15 -15 -15 -15 -15 -15 -15 -15 -15 -15 -15 -15
-14 -14 -14 -14 -14 -14 -13 -13 -13 -13 -13 -14 -14 -14 -14 -14 -14 -14 -14 -15 -15 -15 -15 -15 -15 -15 -15 -15 -15 -15 -15 -15 -15 -15 -15 -15 -15 -15 -15 -15 -15 -15 -15 -15 -15 -15 -15 -15 -15 -15 -15 -15 -15 -15 -15 -15 -15 -15 -15 -15 -15 -15 -15
-14 -14 -14 -14 -14 -14 -14 -13 -13 -13 -14 -14 -14 -14 -14 -14 -14 -14 -14 -15 -15 -15 -15 -15 -15 -15 -15 -15 -15 -15 -15 -15 -15 -15 -15 -15 -15 -15 -15 -15 -15 -15 -15 -15 -15 -15 -15 -15 -15 -15 -15 -15 -15 -15 -15 -15 -15 -15 -15 -15 -15 -15 -15
-14 -14 -14 -14 -14 -14 -14 -13 -13 -14 -14 -14 -14 -14 -14 -14 -14 -15 -15 -15 -15 -15 -15 -15 -15 -15 -15 -15 -15 -15 -15 -15 -15 -15 -15 -15 -15 -15 -15 -15 -15 -15 -15 -15 -16 -16 -16 -16 -15 -15 -15 -15 -15 -15 -15 -16 -16 -15 -15 -15 -15 -15 -15
-14 -14 -14 -14 -14 -14 -14 -14 -14 -14 -14 -14 -14 -14 -14 -15 -15 -15 -15 -15 -15 -15 -15 -15 -15 -15 -15 -15 -15 -15 -15 -15 -15 -15 -15 -15 -15 -15 -15 -15 -15 -15 -16 -16 -16 -16 -16 -16 -16 -16 -15 -16 -16 -15 -15 -16 -16 -16 -16 -16 -16 -16 -16
-14 -14 -14 -14 -14 -14 -14 -14 -14 -14 -14 -14 -15 -15 -15 -15 -15 -15 -15 -15 -15 -15 -15 -15 -15 -16 -15 -15 -15 -15 -15 -15 -15 -15 -15 -15 -15 -15 -15 -15 -15 -15 -16 -16 -16 -16 -16 -16 -16 -16 -16 -16 -16 -16 -16 -16 -16 -16 -16 -16 -16 -16 -16
-14 -14 -14 -14 -14 -14 -14 -14 -14 -14 -14 -14 -15 -15 -15 -15 -15 -15 -15 -15 -15 -15 -15 -15 -15 -16 -16 -16 -16 -15 -15 -15 -15 -15 -15 -15 -15 -15 -15 -15 -15 -16 -16 -16 -16 -16 -16 -16 -16 -16 -16 -17 -17 -16 -16 -16 -16 -16 -16 -16 -16 -16 -16
-14 -14 -14 -14 -14 -14 -14 -14 -14 -14 -14 -14 -15 -15 -15 -15 -15 -15 -15 -15 -15 -15 -15 -15 -15 -15 -15 -16 -16 -16 -16 -15 -15 -15 -15 -15 -16 -16 -16 -16 -16 -16 -16 -16 -16 -16 -16 -16 -17 -17 -17 -17 -17 -17 -17 -16 -16 -16 -16 -16 -16 -16 -16
-14 -14 -14 -14 -14 -14 -15 -15 -15 -15 -15 -15 -15 -15 -15 -15 -15 -15 -15 -15 -15 -15 -15 -15 -15 -15 -15 -15 -15 -15 -16 -16 -16 -15 -15 -15 -16 -16 -16 -16 -16 -16 -16 -16 -16 -16 -16 -17 -17 -17 -17 -17 -17 -17 -17 -17 -16 -16 -16 -16 -16 -16 -16
-14 -14 -14 -14 -14 -15 -15 -15 -15 -15 -15 -15 -15 -15 -15 -15 -15 -15 -15 -15 -15 -16 -16 -16 -15 -15 -15 -15 -15 -15 -15 -16 -16 -15 -15 -15 -16 -16 -16 -16 -16 -16 -16 -16 -16 -16 -16 -16 -17 -17 -17 -16 -16 -17 -17 -17 -17 -16 -16 -17 -17 -17 -17
-14 -14 -14 -14 -15 -15 -15 -15 -15 -15 -15 -15 -15 -15 -15 -15 -15 -15 -15 -15 -15 -15 -15 -15 -15 -15 -15 -15 -15 -15 -16 -16 -15 -15 -15 -15 -16 -16 -16 -16 -16 -16 -16 -16 -16 -16 -16 -16 -16 -16 -17 -17 -17 -17 -17 -17 -17 -17 -17 -17 -17 -17 -17
-15 -15 -14 -15 -15 -15 -15 -15 -15 -15 -15 -15 -15 -16 -16 -16 -15 -15 -15 -15 -15 -15 -15 -15 -15 -15 -15 -15 -15 -16 -16 -16 -16 -15 -15 -15 -16 -16 -16 -17 -17 -17 -17 -17 -16 -16 -16 -16 -17 -17 -17 -17 -17 -17 -17 -17 -17 -17 -17 -17 -17 -18 -18
-15 -15 -15 -15 -15 -15 -15 -15 -16 -16 -15 -15 -16 -16 -16 -15 -15 -15 -15 -15 -15 -15 -15 -15 -15 -15 -15 -15 -16 -16 -16 -16 -16 -15 -15 -15 -16 -16 -16 -17 -17 -17 -17 -17 -17 -17 -17 -17 -17 -17 -17 -17 -17 -17 -17 -17 -17 -17 -17 -18 -18 -18 -18
-15 -15 -15 -15 -15 -15 -15 -16 -16 -16 -16 -16 -16 -16 -16 -16 -16 -16 -15 -15 -15 -15 -15 -15 -15 -16 -16 -16 -16 -16 -16 -16 -16 -15 -15 -16 -16 -16 -16 -17 -17 -17 -17 -17 -17 -17 -17 -17 -17 -17 -17 -17 -17 -17 -17 -17 -17 -18 -18 -18 -18 -18 -18
-15 -15 -15 -15 -15 -16 -16 -16 -16 -16 -16 -16 -16 -16 -16 -16 -16 -16 -16 -16 -16 -16 -16 -16 -16 -16 -16 -16 -16 -16 -16 -16 -16 -16 -16 -16 -16 -16 -17 -17 -17 -17 -17 -17 -17 -17 -17 -17 -17 -17 -17 -17 -17 -17 -18 -18 -18 -18 -18 -18 -18 -18 -18
-15 -15 -16 -16 -16 -16 -16 -15 -15 -16 -16 -16 -16 -16 -16 -16 -16 -16 -16 -16 -16 -16 -16 -16 -16 -16 -16 -16 -16 -16 -16 -16 -16 -16 -16 -16 -16 -17 -17 -17 -17 -17 -17 -17 -17 -17 -17 -17 -17 -17 -17 -18 -18 -18 -18 -18 -18 -18 -18 -18 -18 -18 -18
-15 -15 -16 -16 -16 -16 -15 -15 -16 -16 -16 -16 -16 -16 -16 -16 -16 -16 -16 -16 -16 -16 -16 -16 -16 -16 -16 -16 -16 -16 -16 -16 -16 -16 -16 -17 -17 -17 -17 -17 -17 -17 -17 -18 -17 -17 -17 -18 -18 -18 -18 -18 -18 -18 -18 -18 -18 -18 -18 -18 -18 -18 -18
-15 -15 -15 -16 -16 -15 -15 -16 -15 -15 -15 -16 -16 -16 -16 -16 -16 -16 -16 -16 -16 -17 -17 -17 -17 -17 -16 -16 -16 -16 -16 -16 -16 -16 -17 -17 -17 -17 -17 -17 -18 -18 -18 -18 -18 -18 -18 -18 -18 -18 -18 -18 -18 -18 -18 -18 -18 -18 -18 -18 -18 -18 -18
-15 -15 -15 -15 -15 -15 -16 -16 -15 -15 -15 -16 -16 -16 -16 -16 -16 -16 -17 -17 -17 -17 -17 -17 -17 -17 -17 -17 -17 -17 -17 -17 -17 -17 -17 -17 -17 -18 -18 -18 -18 -18 -18 -18 -18 -18 -18 -18 -18 -18 -18 -18 -18 -18 -18 -18 -18 -18 -18 -18 -18 -18 -18
-16 -16 -16 -16 -16 -16 -16 -16 -16 -16 -16 -16 -16 -16 -17 -17 -17 -17 -17 -17 -17 -17 -17 -17 -17 -17 -17 -17 -17 -17 -17 -17 -17 -17 -17 -17 -17 -17 -18 -18 -18 -18 -18 -18 -18 -18 -18 -18 -18 -18 -18 -18 -18 -17 -17 -18 -18 -18 -18 -18 -18 -18 -18
Height
5789 5790 5791 5792 5792 5793 5793 5794 5794 5794 5794 5795 5795 5797 5798 5799 5801 5802 5803 5804 5806 5807 5807 5808 5808 5809 5809 5810 5809 5810 5811 5811 5813 5814 5814 5814 5814 5815 5816 5816 5816 5816 5816 5817 5817 5818 5819 5819 5819 5819 5819 5819 5819 5819 5820 5820 5821 5821 5822 5822 5822 5821 5821
5787 5788 5789 5789 5790 5791 5791 5792 5792 5792 5792 5792 5793 5795 5796 5797 5799 5800 5801 5802 5804 5805 5806 5806 5806 5807 5807 5808 5808 5809 5809 5810 5811 5812 5812 5813 5813 5813 5814 5815 5815 5815 5815 5816 5816 5817 5817 5817 5818 5818 5818 5819 5819 5819 5819 5820 5820 5820 5821 5820 5820 5820 5820
5785 5786 5787 5787 5787 5788 5789 5790 5789 5789 5790 5790 5791 5793 5794 5795 5797 5798 5799 5800 5801 5803 5804 5804 5805 5805 5806 5806 5807 5807 5808 5808 5809 5810 5810 5811 5811 5812 5813 5813 5814 5814 5814 5814 5815 5815 5815 5816 5817 5817 5817 5818 5818 5818 5818 5819 5819 5819 5819 5819 5819 5819 5819
5781 5783 5784 5784 5785 5785 5786 5787 5787 5787 5787 5788 5789 5790 5792 5793 5795 5796 5797 5798 5799 5801 5802 5802 5803 5804 5804 5805 5805 5806 5806 5806 5807 5808 5808 5809 5809 5810 5811 5811 5812 5813 5813 5813 5814 5814 5814 5815 5815 5816 5816 5816 5817 5817 5817 5818 5818 5818 5818 5817 5817 5817 5818
5777 5779 5781 5781 5781 5782 5783 5784 5785 5785 5785 5786 5787 5788 5790 5792 5794 5794 5794 5796 5797 5798 5799 5800 5801 5802 5802 5803 5803 5804 5804 5804 5805 5806 5806 5807 5807 5808 5809 5809 5810 5811 5812 5812 5813 5813 5813 5813 5814 5814 5815 5815 5815 5815 5816 5816 5816 5817 5817 5816 5816 5816 5817
5775 5777 5778 5779 5780 5780 5781 5782 5783 5783 5783 5784 5785 5786 5788 5790 5792 5792 5792 5794 5795 5796 5797 5797 5798 5799 5800 5801 5801 5802 5802 5802 5802 5803 5804 5805 5806 5806 5807 5807 5808 5809 5810 5811 5811 5812 5812 5812 5812 5813 5813 5813 5813 5814 5814 5814 5815 5815 5816 5815 5815 5815 5815
5774 5775 5777 5778 5779 5779 5780 5781 5781 5781 5781 5782 5783 5785 5786 5788 5790 5790 5790 5791 5793 5794 5795 5795 5796 5797 5797 5798 5799 5800 5800 5801 5801 5801 5802 5803 5804 5805 5805 5805 5806 5807 5807 5808 5810 5810 5810 5811 5811 5811 5811 5811 5811 5812 5812 5813 5813 5814 5814 5813 5813 5814 5814
5772 5774 5775 5776 5777 5778 5779 5779 5779 5779 5779 5780 5781 5782 5784 5786 5787 5788 5788 5789 5791 5792 5793 5793 5794 5794 5795 5796 5797 5798 5798 5799 5799 5799 5800 5801 5802 5803 5803 5803 5804 5804 5805 5806 5807 5808 5808 5809 5809 5810 5809 5809 5810 5810 5810 5811 5811 5812 5812 5811 5811 5812 5812
5769 5771 5773 5774 5775 5775 5776 5777 5777 5777 5777 5777 5778 5779 5781 5783 5785 5786 5786 5787 5788 5790 5791 5791 5792 5792 5793 5794 5795 5796 5796 5797 5797 5797 5798 5799 5800 5800 5801 5801 5802 5802 5803 5804 5805 5806 5806 5807 5807 5808 5807 5807 5808 5808 5808 5809 5809 5810 5809 5808 5809 5810 5810
5766 5767 5769 5770 5771 5772 5773 5774 5775 5775 5775 5775 5775 5777 5778 5780 5782 5783 5784 5785 5786 5788 5788 5789 5789 5790 5791 5792 5793 5794 5794 5795 5795 5796 5796 5796 5797 5798 5799 5799 5799 5800 5801 5802 5802 5803 5804 5804 5805 5805 5806 5806 5806 5806 5806 5807 5807 5808 5807 5806 5807 5808 5808
5763 5764 5764 5766 5767 5769 5770 5771 5772 5773 5773 5772 5773 5775 5776 5778 5780 5781 5782 5783 5784 5785 5786 5786 5787 5787 5788 5789 5791 5792 5793 5793 5793 5794 5794 5794 5795 5796 5796 5797 5797 5798 5799 5800 5800 5800 5801 5802 5802 5803 5803 5804 5804 5804 5805 5805 5805 5806 5805 5804 5805 5806 5806
5760 5761 5761 5762 5764 5765 5766 5768 5769 5770 5770 5770 5771 5772 5774 5775 5777 5778 5779 5780 5781 5782 5783 5783 5784 5785 5785 5787 5788 5789 5790 5791 5791 5792 5792 5793 5793 5794 5794 5795 5795 5795 5796 5797 5798 5798 5798 5799 5799 5800 5800 5801 5802 5802 5803 5803 5803 5804 5803 5802 5803 5804 5804
5757 5759 5758 5758 5759 5761 5763 5764 5765 5766 5766 5767 5769 5770 5771 5773 5774 5775 5776 5777 5778 5779 5780 5780 5781 5782 5783 5784 5785 5787 5788 5788 5789 5790 5790 5791 5791 5792 5793 5793 5793 5794 5794 5795 5795 5795 5796 5796 5797 5797 5797 5798 5799 5801 5801 5801 5801 5802 5801 5800 5801 5802 5802
5753 5755 5755 5755 5756 5758 5759 5760 5762 5762 5763 5764 5765 5766 5769 5770 5771 5772 5774 5775 5775 5776 5777 5778 5779 5780 5781 5782 5783 5784 5785 5786 5786 5787 5788 5789 5789 5790 5791 5791 5791 5792 5792 5793 5793 5793 5794 5794 5794 5795 5795 5795 5797 5798 5799 5798 5798 5799 5799 5798 5799 5799 5799
5748 5750 5752 5752 5753 5754 5756 5757 5758 5758 5759 5760 5761 5763 5765 5767 5769 5770 5771 5772 5773 5773 5774 5775 5776 5777 5778 5779 5780 5781 5782 5783 5784 5785 5786 5786 5787 5788 5788 5788 5789 5789 5790 5790 5790 5791 5791 5791 5792 5792 5792 5793 5794 5796 5797 5796 5795 5796 5796 5796 5796 5797 5797
5744 5746 5748 5749 5751 5752 5752 5753 5754 5754 5755 5756 5758 5760 5762 5764 5766 5767 5768 5769 5770 5771 5772 5773 5774 5775 5776 5777 5778 5779 5779 5780 5781 5782 5783 5784 5784 5785 5786 5786 5786 5787 5787 5787 5788 5788 5789 5789 5789 5790 5790 5790 5791 5793 5794 5793 5792 5793 5793 5794 5794 5794 5795
5741 5742 5744 5746 5748 5749 5749 5750 5750 5750 5751 5753 5756 5758 5760 5761 5763 5764 5766 5767 5768 5769 5770 5771 5772 5773 5774 5774 5775 5776 5777 5777 5778 5780 5780 5781 5782 5783 5783 5784 5784 5785 5785 5785 5785 5785 5786 5786 5787 5787 5788 5788 5788 5790 5791 5790 5790 5790 5790 5791 5791 5792 5792
5738 5738 5740 5742 5744 5746 5746 5746 5746 5747 5748 5751 5754 5756 5757 5759 5760 5762 5763 5764 5765 5767 5768 5769 5769 5770 5771 5772 5772 5773 5774 5775 5776 5777 5778 5779 5780 5781 5781 5781 5782 5782 5782 5783 5783 5783 5783 5784 5784 5785 5785 5785 5786 5788 5788 5788 5788 5788 5788 5788 5788 5789 5789
5735 5736 5737 5738 5740 5742 5742 5743 5743 5744 5747 5750 5752 5753 5755 5756 5757 5759 5761 5762 5763 5764 5765 5766 5767 5768 5769 5769 5770 5771 5771 5772 5773 5774 5776 5776 5777 5778 5778 5778 5779 5780 5780 5780 5780 5781 5781 5781 5782 5782 5782 5782 5783 5785 5785 5785 5785 5785 5785 5785 5785 5785 5786
5732 5733 5734 5736 5737 5738 5739 5740 5741 5743 5746 5748 5749 5751 5752 5753 5755 5757 5759 5760 5761 5761 5762 5763 5764 5765 5766 5767 5768 5769 5769 5770 5771 5772 5773 5773 5773 5775 5776 5775 5776 5777 5777 5777 5777 5778 5778 5779 5779 5779 5780 5780 5781 5781 5782 5782 5782 5782 5782 5782 5782 5782 5782
5729 5730 5731 5733 5734 5734 5735 5737 5739 5742 5744 5745 5747 5748 5749 5751 5753 5755 5756 5758 5758 5758 5759 5761 5762 5763 5764 5765 5766 5766 5767 5768 5768 5769 5770 5770 5771 5772 5772 5772 5773 5773 5773 5774 5774 5775 5775 5776 5776 5776 5777 5778 5778 5778 5778 5778 5778 5778 5779 5779 5779 5778 5778
5726 5727 5729 5730 5730 5730 5731 5734 5737 5739 5741 5742 5744 5746 5748 5750 5751 5752 5754 5754 5754 5755 5757 5758 5759 5761 5762 5762 5763 5764 5764 5765 5766 5767 5768 5768 5768 5769 5769 5769 5770 5770 5770 5770 5771 5771 5772 5773 5773 5773 5774 5774 5774 5773 5774 5774 5774 5774 5775 5775 5775 5775 5775
5724 5726 5727 5727 5726 5727 5729 5732 5734 5735 5738 5741 5743 5745 5746 5748 5749 5750 5750 5751 5752 5753 5755 5756 5757 5758 5759 5760 5761 5761 5762 5763 5763 5764 5764 5765 5766 5766 5766 5766 5767 5768 5768 5768 5768 5768 5769 5769 5770 5770 5770 5771 5771 5770 5770 5771 5771 5771 5771 5771 5771 5771 5771
5721 5723 5725 5725 5723 5724 5726 5728 5730 5733 5736 5739 5740 5742 5744 5745 5745 5747 5747 5749 5750 5752 5752 5753 5754 5755 5756 5757 5758 5758 5758 5759 5760 5761 5761 5762 5763 5763 5763 5763 5764 5765 5765 5765 5765 5766 5766 5766 5767 5767 5767 5768 5768 5767 5767 5767 5767 5767 5767 5767 5767 5767 5767
5719 5720 5722 5721 5721 5722 5724 5727 5730 5732 5734 5735 5737 5739 5741 5742 5743 5745 5746 5747 5749 5749 5750 5751 5751 5752 5753 5754 5754 5755 5755 5756 5757 5757 5758 5759 5759 5759 5760 5760 5761 5762 5763 5763 5763 5763 5763 5763 5763 5764 5764 5764 5764 5764 5763 5763 5763 5763 5763 5763 5763 5763 5763
5717 5718 5719 5720 5721 5722 5725 5727 5728 5730 5731 5733 5735 5737 5739 5740 5742 5743 5744 5745 5746 5747 5748 5748 5749 5749 5749 5750 5751 5751 5752 5752 5753 5754 5755 5756 5756 5755 5756 5757 5758 5759 5760 5760 5760 5760 5760 5760 5760 5761 5760 5760 5760 5760 5760 5759 5759 5759 5759 5759 5759 5758 5759
5716 5717 5718 5720 5722 5722 5723 5725 5726 5727 5729 5731 5733 5734 5736 5738 5739 5741 5742 5742 5743 5744 5745 5745 5746 5746 5746 5746 5747 5748 5748 5749 5749 5750 5751 5752 5753 5752 5753 5754 5755 5756 5757 5757 5757 5757 5757 5757 5757 5757 5757 5757 5756 5756 5756 5755 5755 5755 5755 5755 5755 5754 5754
5715 5716 5717 5719 5720 5721 5721 5723 5725 5726 5727 5729 5730 5732 5734 5735 5736 5738 5738 5739 5740 5741 5742 5743 5743 5743 5743 5743 5744 5744 5745 5745 5746 5747 5747 5748 5749 5750 5750 5751 5752 5752 5753 5753 5753 5753 5753 5753 5753 5753 5753 5753 5752 5752 5752 5752 5752 5752 5752 5752 5751 5751 5750
5714 5715 5716 5717 5718 5719 5720 5721 5722 5724 5725 5726 5728 5730 5731 5732 5733 5734 5735 5736 5737 5738 5739 5739 5740 5740 5740 5740 5740 5741 5741 5742 5743 5743 5743 5743 5745 5746 5746 5747 5748 5748 5749 5750 5750 5749 5749 5749 5749 5749 5749 5749 5749 5749 5749 5749 5749 5749 5748 5748 5747 5747 5746
5712 5713 5715 5716 5717 5717 5718 5719 5720 5721 5722 5724 5725 5727 5728 5730 5731 5732 5733 5734 5734 5735 5736 5737 5737 5737 5737 5737 5737 5738 5738 5739 5740 5740 5739 5739 5740 5742 5743 5744 5744 5745 5746 5746 5745 5745 5745 5745 5745 5745 5745 5745 5745 5746 5746 5745 5745 5745 5744 5744 5743 5742 5742
5710 5711 5713 5714 5715 5716 5717 5718 5718 5718 5720 5721 5723 5724 5726 5728 5729 5730 5731 5731 5732 5733 5733 5734 5734 5734 5735 5735 5735 5735 5735 5736 5736 5736 5736 5736 5737 5738 5739 5741 5741 5742 5742 5741 5741 5741 5741 5741 5741 5742 5742 5742 5742 5742 5742 5741 5741 5740 5740 5739 5738 5738 5737
5708 5709 5711 5712 5712 5713 5714 5715 5715 5716 5718 5719 5720 5722 5723 5724 5725 5727 5728 5728 5729 5730 5730 5731 5732 5732 5732 5732 5732 5732 5733 5733 5733 5734 5733 5734 5735 5736 5737 5737 5738 5738 5737 5737 5737 5737 5737 5737 5737 5738 5738 5738 5738 5738 5737 5737 5736 5735 5735 5734 5733 5733 5732
5705 5706 5707 5708 5709 5710 5710 5712 5713 5715 5716 5717 5717 5719 5720 5721 5722 5723 5724 5725 5726 5727 5727 5728 5729 5729 5729 5729 5729 5729 5729 5730 5731 5731 5731 5732 5733 5733 5733 5734 5733 5733 5733 5733 5733 5733 5733 5733 5733 5733 5733 5733 5733 5733 5732 5732 5731 5730 5729 5728 5728 5727 5726
5702 5704 5705 5706 5707 5707 5708 5710 5711 5712 5713 5713 5714 5715 5716 5717 5719 5720 5721 5722 5723 5724 5724 5725 5725 5725 5725 5726 5726 5726 5726 5727 5728 5729 5729 5728 5729 5729 5730 5729 5729 5729 5729 5729 5729 5729 5729 5729 5729 5729 5729 5728 5728 5727 5727 5726 5725 5724 5724 5723 5721 5720 5719
5699 5700 5701 5703 5704 5705 5705 5707 5708 5709 5709 5709 5710 5711 5712 5714 5715 5717 5718 5719 5720 5720 5721 5721 5722 5722 5722 5722 5723 5723 5723 5723 5725 5726 5726 5725 5725 5725 5725 5725 5725 5725 5725 5725 5725 5724 5724 5724 5724 5724 5724 5723 5723 5722 5721 5720 5719 5718 5717 5716 5715 5714 5712
5695 5696 5697 5699 5700 5701 5702 5703 5705 5706 5706 5707 5707 5708 5709 5710 5712 5714 5715 5715 5716 5716 5716 5717 5718 5718 5718 5719 5719 5719 5719 5720 5720 5721 5722 5721 5721 5721 5721 5721 5721 5721 5720 5720 5720 5720 5719 5719 5719 5718 5718 5717 5717 5716 5716 5715 5713 5712 5711 5709 5708 5707 5706
5692 5693 5694 5695 5696 5697 5699 5701 5702 5702 5704 5704 5705 5705 5706 5707 5708 5709 5711 5712 5712 5711 5712 5713 5714 5714 5714 5714 5715 5715 5716 5716 5716 5716 5717 5717 5717 5717 5717 5717 5717 5717 5716 5716 5715 5715 5714 5714 5713 5712 5712 5711 5710 5710 5709 5708 5707 5706 5704 5703 5701 5700 5699
Wind_Speed
16 16 17 18 21 22 22 21 21 20 18 16 15 16 16 15 15 16 16 15 13 12 11 10 10 10 10 10 10 8 8 9 8 8 7 6 6 6 6 7 8 8 8 7 7 5 5 4 4 4 4 3 3 1 1 1 0 1 1 1 1 1 1
16 16 17 18 20 23 22 21 22 21 18 16 15 16 16 16 16 17 16 14 13 13 12 11 11 11 11 10 9 9 9 10 9 8 7 6 6 6 6 7 8 8 8 8 7 6 5 5 4 4 4 4 3 2 1 1 1 2 2 2 2 2 2
20 19 18 18 19 21 22 21 21 19 18 17 17 16 17 17 17 17 15 14 14 14 13 12 12 12 11 10 9 9 10 10 9 8 7 6 6 6 6 7 8 8 8 8 7 6 5 5 5 5 5 4 3 3 3 2 2 3 3 3 3 2 2
22 22 19 18 18 19 21 22 20 18 17 18 19 19 19 19 18 17 15 14 15 15 13 12 12 12 12 11 10 10 11 10 9 8 7 6 6 6 6 7 8 7 7 7 7 6 6 5 5 5 5 5 4 3 3 3 3 3 3 4 4 3 3
19 19 18 17 17 18 20 21 20 17 17 18 19 20 19 19 18 17 14 14 16 15 14 13 13 13 12 11 11 10 10 10 10 9 7 7 7 6 7 8 8 7 7 7 6 6 7 6 6 6 5 5 4 3 4 3 4 4 5 6 6 5 5
11 11 13 15 15 17 20 21 19 17 16 17 17 18 18 19 19 17 15 16 17 17 16 15 14 13 12 12 12 11 11 11 11 9 8 8 7 6 7 9 9 9 9 9 8 8 8 8 8 7 6 7 6 5 5 4 5 6 6 8 8 6 6
15 13 12 13 14 16 18 20 19 16 16 16 17 17 18 19 20 18 17 18 19 19 17 16 14 14 13 13 12 12 11 11 11 10 9 9 8 7 8 9 10 10 9 9 9 9 9 9 9 8 8 9 8 7 6 5 6 7 7 9 9 7 8
24 22 15 11 12 15 18 19 19 17 16 16 17 18 19 20 21 20 19 19 20 19 18 16 15 14 14 13 12 12 12 12 12 11 10 10 9 8 9 9 10 10 9 10 9 9 9 9 9 10 11 11 10 9 9 7 7 7 8 10 10 8 8
22 24 20 16 13 14 17 18 18 18 16 15 16 19 20 21 21 20 19 20 21 20 18 17 15 15 15 14 13 12 12 12 12 12 12 11 10 9 10 10 11 11 11 10 10 9 9 10 11 12 12 13 12 12 11 9 9 8 9 12 11 9 9
20 22 23 21 17 16 18 18 18 17 17 16 16 18 21 22 22 20 20 21 21 20 19 17 16 16 16 15 14 13 13 13 13 13 13 12 11 11 11 11 12 12 12 11 11 11 11 12 12 13 14 15 15 14 12 11 10 9 10 13 12 10 10
18 21 21 22 21 19 19 20 19 17 17 18 17 19 22 24 22 21 21 22 22 21 19 18 16 16 17 16 16 15 14 14 14 14 14 13 12 12 11 12 13 13 13 12 12 13 13 13 14 14 16 17 16 15 12 11 10 9 11 14 14 12 11
18 20 22 23 22 20 19 21 20 18 18 18 18 20 25 25 23 22 23 23 23 21 19 18 17 18 18 18 17 16 16 15 15 15 15 14 13 12 12 12 13 14 13 13 13 13 14 15 15 16 17 17 16 14 11 11 11 10 12 15 15 13 12
20 21 22 23 22 19 18 19 20 20 20 20 19 22 26 25 22 23 24 24 23 21 19 18 18 19 20 20 19 18 17 16 15 15 15 14 13 12 12 12 13 14 14 13 13 14 15 16 17 17 18 17 15 13 11 11 12 11 13 15 15 14 12
21 21 21 21 19 18 18 19 20 21 22 22 22 24 28 24 21 22 24 24 23 21 19 19 19 20 20 21 21 20 18 16 15 15 15 14 14 13 13 14 14 14 14 14 15 15 16 17 17 17 17 16 14 12 11 12 13 12 13 16 16 14 13
23 22 20 20 18 16 17 19 20 21 21 22 24 28 31 28 23 22 24 24 23 22 20 19 20 21 21 21 21 19 18 17 16 15 15 15 15 15 15 15 15 15 15 15 15 15 15 16 16 16 16 16 15 12 11 13 14 13 14 16 16 15 14
26 23 21 20 18 17 18 19 21 20 19 22 26 29 31 30 26 24 24 25 24 22 21 21 21 22 22 21 20 18 18 18 17 16 16 16 16 15 16 16 15 15 15 16 16 15 15 15 15 15 15 16 15 12 10 12 13 14 15 15 16 16 15
25 23 23 21 18 17 18 20 21 20 19 23 26 26 27 28 26 25 25 24 23 23 22 22 22 22 21 20 19 18 18 18 17 17 17 17 16 15 15 16 15 16 16 17 16 16 16 15 15 15 15 16 16 12 10 12 13 14 15 15 16 16 16
23 23 23 21 17 17 18 20 21 21 22 23 23 24 26 26 25 24 24 23 23 23 23 23 23 22 20 20 19 18 18 18 17 17 17 17 16 15 15 16 16 17 18 18 18 18 17 16 16 16 16 17 17 14 12 14 14 15 16 16 17 18 18
22 22 22 19 18 18 18 18 18 19 21 21 22 24 26 26 25 25 24 23 23 24 24 24 23 21 20 20 18 17 17 17 17 17 17 17 17 15 15 16 17 17 18 19 20 20 19 18 18 17 17 18 18 16 15 16 16 16 17 18 19 20 20
22 22 22 21 21 20 18 17 16 18 18 19 22 25 25 26 26 25 23 22 23 24 25 24 23 21 20 20 18 17 17 17 17 17 17 18 18 17 17 18 18 18 19 19 20 21 20 20 19 18 18 19 19 19 17 17 17 17 18 19 21 22 22
21 20 22 23 22 21 20 20 19 18 18 20 22 26 27 26 24 22 21 21 22 24 25 24 23 21 20 19 18 18 19 19 19 18 18 20 20 20 21 21 20 20 20 20 20 21 21 21 20 20 19 19 20 20 19 18 18 19 19 20 21 22 23
18 20 21 22 22 21 21 23 22 20 20 22 24 26 26 24 21 20 21 22 24 25 24 23 22 21 21 21 20 20 21 20 20 20 20 20 21 22 23 23 22 21 20 20 20 21 21 21 21 21 20 19 20 22 21 20 20 20 21 21 21 22 23
19 19 20 22 23 21 21 24 24 22 21 21 23 24 22 19 19 20 22 23 23 23 23 23 22 21 22 22 22 22 22 21 21 21 21 20 20 21 22 22 21 20 20 20 20 20 20 20 21 21 21 20 22 23 22 21 20 20 20 21 21 22 22
20 21 21 23 25 26 28 29 25 22 21 22 22 21 20 19 20 21 21 21 21 21 22 23 23 23 23 23 23 23 23 22 21 22 22 21 20 21 22 21 20 20 20 20 20 20 19 20 21 22 22 21 22 22 21 20 20 19 20 21 22 22 23
19 23 26 26 26 29 30 27 22 21 22 23 22 20 20 19 19 19 19 20 20 22 23 23 23 24 24 24 24 23 24 23 23 24 24 24 23 23 22 21 21 19 19 19 19 18 18 19 20 20 21 20 20 20 20 21 21 21 22 23 23 24 24
15 20 26 26 24 24 22 20 20 20 22 21 19 19 19 19 19 19 19 20 21 22 22 22 23 24 25 26 25 25 24 24 25 26 26 26 26 26 25 23 21 19 18 18 18 18 18 18 19 19 19 19 20 20 21 22 23 23 24 24 25 26 26
14 15 21 25 24 21 20 19 19 18 18 18 18 19 19 19 19 19 20 21 21 21 22 23 23 25 26 26 26 26 25 25 26 27 27 27 27 27 26 23 20 18 18 18 19 19 19 19 19 19 20 21 22 23 24 24 25 25 25 26 26 27 28
15 14 19 24 24 22 20 17 15 16 17 18 19 19 19 19 19 20 20 21 21 21 22 22 23 25 26 27 28 29 28 27 26 26 27 28 27 27 25 23 20 19 18 19 19 20 20 20 20 21 22 23 24 25 26 26 26 26 27 27 28 29 30
16 15 18 23 23 21 19 16 15 17 18 18 19 19 19 20 20 20 21 20 21 21 21 21 23 24 26 27 28 29 28 26 24 24 26 27 28 27 25 24 22 21 20 20 21 22 23 23 23 23 24 25 26 27 27 27 28 28 29 30 30 31 33
18 18 20 24 25 23 20 19 18 19 20 20 21 21 21 20 20 20 20 21 21 20 20 21 22 22 22 22 22 23 24 24 23 23 24 26 27 27 26 25 24 22 22 23 24 25 25 25 25 25 26 27 28 28 29 29 30 31 31 32 33 34 35
22 22 22 25 25 24 23 23 23 24 24 23 22 21 21 21 21 21 21 21 21 20 20 21 21 21 20 19 20 21 23 24 23 23 24 24 25 25 25 25 24 24 24 25 26 27 27 27 27 27 27 28 29 29 30 31 32 33 34 35 36 37 38
21 23 24 25 25 25 26 27 27 27 25 24 22 21 21 23 24 24 23 23 23 23 22 22 22 22 21 21 22 23 24 24 24 24 23 23 22 23 23 24 25 25 26 27 27 28 29 29 30 30 30 30 30 31 32 34 35 36 37 38 38 39 41
21 22 24 26 27 27 28 27 25 25 26 26 26 24 24 26 28 27 26 25 24 24 24 23 23 24 24 24 25 25 25 25 24 24 23 22 21 22 23 25 26 28 29 29 29 30 30 31 31 31 32 32 33 34 35 36 38 39 40 41 42 43 44
26 26 25 26 28 28 28 26 26 26 28 31 31 30 28 29 29 27 24 23 23 24 24 24 24 25 25 25 25 26 25 25 25 24 22 21 22 23 25 26 27 28 29 29 30 31 31 32 32 33 34 35 36 37 38 40 41 42 43 44 45 46 47
29 30 28 28 29 30 30 29 29 30 32 33 32 30 29 28 26 24 23 23 24 25 25 25 26 26 26 25 25 26 26 26 26 25 24 24 24 25 26 27 28 29 29 30 31 32 33 34 35 36 37 38 39 40 41 43 44 45 46 47 48 48 49
31 32 31 29 30 33 35 34 34 34 32 30 28 27 26 26 25 25 26 26 27 27 27 27 27 26 26 26 26 26 27 27 28 29 29 29 28 28 29 29 30 31 31 32 33 34 35 37 38 39 40 41 42 43 44 45 45 46 47 48 49 50 50
27 30 29 27 27 27 27 27 28 29 28 26 25 25 26 27 28 28 28 28 28 29 29 28 28 28 28 27 27 28 29 29 30 31 32 33 33 33 33 33 33 34 34 35 35 36 37 38 40 42 43 44 45 45 46 46 47 48 49 50 51 52 53
Wind_Direction
260 260 264 265 258 251 251 252 250 251 254 256 248 233 229 234 236 234 229 227 229 226 217 207 209 218 221 224 230 236 247 252 252 251 250 254 263 270 272 270 268 264 264 266 260 254 260 255 235 215 217 226 225 211 129 126 179 179 194 211 217 232 257
261 264 267 266 257 249 248 249 248 250 255 255 247 236 232 235 237 234 229 230 232 227 217 208 211 218 219 223 230 234 241 247 248 247 247 249 258 265 271 273 269 266 265 262 252 245 255 258 243 227 227 220 200 198 182 169 204 220 227 235 232 242 258
265 265 265 262 255 248 247 248 249 250 250 247 243 241 239 236 233 230 229 233 233 228 218 212 214 218 219 223 228 232 237 241 243 246 247 247 252 259 269 271 266 266 264 259 258 259 263 262 247 238 235 221 200 199 194 184 198 217 234 244 240 237 243
274 266 263 263 258 251 247 247 247 245 245 244 243 245 243 233 226 228 232 236 234 228 220 216 218 220 221 222 224 229 236 241 243 244 246 246 248 255 266 268 265 262 256 254 261 264 265 262 253 248 240 227 214 206 204 202 210 221 232 241 245 243 248
279 263 260 265 261 251 245 243 243 242 242 242 241 241 234 223 225 232 234 236 235 230 223 219 220 221 221 224 226 229 235 243 245 242 242 245 247 253 263 267 264 260 259 261 262 260 263 263 262 261 252 246 242 226 222 218 218 226 228 237 246 252 258
269 259 259 260 257 251 245 241 240 240 238 235 234 231 221 222 233 235 230 234 235 230 226 223 221 221 221 225 229 230 233 240 246 244 240 242 246 251 258 263 265 266 268 269 266 264 267 267 269 272 266 264 263 249 243 237 230 230 231 240 249 255 262
254 264 266 254 251 250 246 241 239 238 233 230 231 229 224 229 236 231 225 230 232 230 228 226 224 224 224 228 231 233 235 239 245 247 242 241 241 242 249 256 261 265 268 268 267 266 266 267 272 277 276 276 274 265 262 258 244 234 233 243 250 253 260
253 257 258 255 255 254 253 248 240 236 234 232 231 233 233 231 230 227 226 227 229 229 229 227 227 228 230 232 233 236 241 244 249 251 250 245 241 240 245 250 256 261 262 262 264 262 261 265 272 277 281 283 279 272 270 264 249 237 238 248 253 253 258
254 252 253 261 266 259 257 255 245 238 236 236 234 237 234 225 225 230 228 226 229 229 228 228 228 229 232 235 236 239 244 248 251 253 253 249 244 241 243 248 252 256 257 259 262 262 262 267 272 276 280 282 277 273 274 268 256 249 248 255 258 256 262
251 251 253 258 261 258 253 252 251 244 241 242 240 237 229 220 225 233 229 227 229 228 228 230 230 232 235 235 237 240 244 249 251 251 251 250 246 242 242 247 251 253 256 261 263 264 265 267 270 272 276 277 274 273 276 272 261 254 253 257 260 260 264
245 248 250 248 249 253 250 247 250 248 245 245 244 236 223 219 227 231 227 228 229 227 228 231 233 238 241 239 239 241 244 248 250 249 250 249 244 241 240 245 251 254 254 256 261 264 266 268 268 269 272 274 274 274 274 268 258 250 252 257 260 262 263
245 243 240 235 237 246 248 245 246 246 245 246 246 236 221 219 227 227 225 227 227 226 228 231 237 241 244 245 244 245 246 247 248 247 246 244 240 237 237 241 248 254 255 256 259 263 266 268 269 270 271 272 273 273 270 260 253 248 249 255 259 262 261
257 250 236 228 231 241 246 246 244 244 245 247 245 231 218 219 225 224 225 227 226 226 229 233 239 242 244 246 246 248 250 249 247 245 244 243 241 237 235 238 244 250 255 259 261 264 267 270 272 273 272 271 271 271 266 258 253 246 247 254 259 259 255
258 251 239 231 232 238 244 246 246 248 251 250 240 223 214 220 228 227 228 228 226 226 230 235 239 241 242 244 246 249 251 249 247 246 246 247 244 241 239 240 243 246 251 256 260 263 266 270 274 274 274 272 270 267 261 257 254 247 247 255 257 253 249
256 248 243 242 241 242 246 248 249 252 255 247 231 217 214 222 235 236 231 229 227 227 230 236 237 238 239 242 246 249 249 248 247 246 247 247 245 245 243 244 246 248 249 253 257 260 264 270 273 274 274 273 270 264 256 253 253 250 250 255 257 253 250
261 250 244 245 246 248 251 252 251 253 251 235 222 216 217 225 237 240 233 229 228 228 232 236 235 236 237 240 243 244 243 244 244 243 244 245 245 246 247 248 251 252 253 254 256 259 264 268 270 270 270 270 267 260 250 249 251 253 255 257 257 258 258
257 249 243 243 246 250 251 254 254 248 233 220 217 215 218 227 235 235 231 230 229 230 234 237 237 238 238 238 238 237 237 241 242 242 243 245 246 249 253 255 256 256 256 257 258 260 262 265 267 268 267 265 264 259 251 249 250 254 257 258 258 260 263
250 245 240 238 244 248 251 255 253 237 219 212 213 216 221 228 230 229 230 233 232 231 234 236 238 238 236 235 234 233 235 240 242 244 247 250 250 250 254 257 257 258 259 260 260 260 260 260 261 263 264 263 264 262 255 253 253 255 259 262 263 263 264
248 242 236 237 244 247 250 252 238 217 210 212 215 219 222 223 224 229 235 234 229 228 231 234 236 234 232 232 233 235 240 244 247 249 250 251 250 247 251 257 260 261 262 263 262 261 260 259 259 262 262 262 264 263 260 258 258 258 261 264 266 266 266
244 238 233 237 243 246 246 236 213 198 205 217 219 217 216 218 225 233 233 225 222 227 231 233 233 232 231 234 237 242 246 249 251 250 248 248 249 249 253 260 264 265 264 263 261 260 260 260 261 262 261 261 265 266 265 265 264 264 264 266 267 268 269
233 229 228 234 241 243 235 220 207 204 216 224 220 213 214 220 225 226 222 218 223 230 233 232 232 231 233 237 240 245 249 250 251 251 249 250 253 256 261 264 265 264 263 262 261 260 260 261 263 262 261 262 266 268 269 268 268 269 269 271 271 271 272
221 219 227 236 237 232 223 213 209 215 224 226 220 216 218 220 217 215 218 223 228 233 235 235 235 236 239 241 243 246 248 249 251 253 252 254 259 262 263 264 264 262 261 260 260 260 261 262 264 265 265 266 268 271 272 272 272 273 273 274 275 274 275
216 215 224 233 231 222 210 204 209 221 228 225 219 218 217 213 211 215 221 227 232 235 237 239 241 244 246 247 248 249 250 249 249 251 252 254 258 260 261 261 262 262 261 260 259 261 262 264 266 268 271 271 272 273 275 275 275 275 274 273 273 272 274
214 215 221 229 227 211 191 189 204 222 225 216 211 213 213 212 216 221 225 231 235 237 239 242 246 248 249 250 251 252 253 252 250 249 250 252 256 258 260 261 262 262 262 262 262 262 264 266 268 270 271 271 271 272 274 274 274 273 271 270 269 270 271
212 218 224 225 217 200 187 191 211 220 212 205 204 210 215 216 220 223 227 231 234 236 240 244 249 252 253 253 253 254 256 256 254 251 250 252 255 258 260 261 261 258 257 260 262 263 263 264 265 266 266 266 267 269 271 272 272 271 270 271 271 272 273
214 219 221 212 199 192 192 200 207 204 200 201 206 212 214 216 218 221 225 229 232 238 242 246 251 256 258 259 259 258 258 257 256 254 252 251 253 256 258 259 259 256 254 256 257 257 258 260 262 263 264 265 266 266 268 269 270 271 273 275 276 278 279
212 217 216 206 197 197 201 200 198 198 201 204 208 212 214 217 220 223 227 232 236 241 246 250 255 258 260 262 262 260 259 260 259 258 255 253 252 255 258 260 258 255 255 257 258 258 258 259 261 262 263 264 264 265 266 268 270 273 276 278 280 281 282
210 215 211 204 201 203 204 204 203 204 205 207 210 214 218 222 227 231 235 240 244 248 253 256 258 259 261 260 259 258 260 262 262 258 256 254 251 251 253 254 251 250 253 257 258 257 256 255 257 258 260 262 264 266 269 271 273 275 277 278 280 281 283
215 220 209 198 201 209 215 218 214 211 212 214 216 220 225 229 234 239 243 247 251 256 259 259 258 259 259 257 255 255 256 257 257 255 253 252 248 245 245 245 247 249 254 257 256 254 253 253 256 259 262 265 267 270 272 273 274 275 276 278 280 282 284
216 221 210 201 206 219 226 226 223 222 222 223 225 230 234 237 241 246 248 249 252 255 255 255 255 255 255 253 250 248 249 250 253 254 254 250 246 242 239 239 244 252 259 261 259 256 255 256 259 262 264 266 268 270 272 273 275 276 278 280 281 282 283
215 218 214 213 219 227 230 229 230 231 227 224 228 233 236 241 245 247 248 248 249 249 249 250 251 252 250 248 246 246 249 251 253 256 256 250 243 239 237 238 245 254 261 262 260 258 257 257 258 261 264 267 271 273 274 275 277 279 280 281 282 283 285
212 214 216 221 225 228 230 230 234 235 226 220 228 237 241 246 248 250 252 251 249 248 248 249 250 250 249 248 249 251 253 253 253 253 252 246 239 238 241 245 251 256 259 260 259 258 259 260 263 265 268 271 273 274 276 277 279 281 282 282 284 285 286
220 217 215 217 218 221 227 230 234 237 229 226 238 248 249 250 253 253 252 251 249 249 250 249 249 250 251 252 253 254 254 253 251 250 249 245 241 242 246 250 254 257 259 260 261 262 264 266 268 270 272 274 276 277 278 279 280 281 283 284 285 285 286
232 227 222 220 221 222 226 230 234 238 237 239 245 249 249 251 253 252 250 249 250 250 249 248 248 250 252 253 254 255 253 251 248 247 249 250 248 247 249 251 254 257 259 261 263 265 267 269 270 272 274 276 278 279 281 282 283 284 284 284 285 285 285
234 231 227 226 227 227 228 233 239 242 242 243 245 246 247 249 248 246 250 255 255 252 248 247 249 251 253 254 255 255 254 252 249 248 249 251 251 251 252 254 256 258 260 262 265 268 270 272 274 276 277 278 280 281 283 284 285 285 285 286 286 286 287
231 232 231 230 231 233 233 236 240 242 238 234 234 237 244 249 249 251 255 258 258 256 252 251 252 253 255 256 257 257 257 256 254 253 253 253 254 254 254 255 257 260 263 267 269 272 275 277 278 279 280 281 283 284 284 285 284 284 285 286 286 287 287
233 233 232 229 229 233 233 232 234 236 234 231 235 243 251 256 258 258 259 258 256 255 254 254 255 257 257 259 260 260 260 259 258 258 257 257 256 256 256 257 258 261 265 269 272 275 277 279 281 282 283 284 285 286 286 286 286 286 286 287 287 287 287